Regional Weather Roundup
Issued by NWS

Home | Current Version | Previous Version | Text Only | Print | Product List | Glossary On
Versions: 1 2 3 4 5 6 7 8 9 10 11 12 13 14 15 16 17 18 19 20 21 22 23 24 25 26 27 28 29 30 31 32 33 34 35 36 37 38 39 40 41 42 43 44 45 46 47 48 49 50
000
ASUS43 KTOP 211559
RWRKS

WEATHER ROUNDUP FOR KANSAS
NATIONAL WEATHER SERVICE GOODLAND KS
1100 AM CDT MON APR 21 2014

NOTE:  "FAIR" INDICATES FEW OR NO CLOUDS BELOW 12,000 FEET WITH NO
SIGNIFICANT WEATHER AND/OR OBSTRUCTIONS TO VISIBILITY.

KSZ001>006-013>018-027>032-041>047-211700-
NORTHWEST KANSAS

CITY           SKY/WX    TMP DP  RH WIND       PRES   REMARKS
GOODLAND       MOSUNNY   60  27  28 NE17G25   30.24R
HAYS           MOSUNNY   64  55  72 N22       30.12R
HILL CITY      SUNNY     63  39  41 NE24G32   30.17R
RUSSELL        PTSUNNY   65  54  67 N15       30.08R
$$

KSZ061>065-074>080-084>089-211700-
SOUTHWEST KANSAS

CITY           SKY/WX    TMP DP  RH WIND       PRES   REMARKS
DODGE CITY     SUNNY     67  53  61 NE6       30.10S
ELKHART          N/A     61  45  56 N13         N/A
GARDEN CITY    CLOUDY    61  52  72 N15       30.14R
GREAT BEND     MOSUNNY   70  52  52 NE20      30.08R
LIBERAL        SUNNY     66  54  63 NE15      30.14R
$$

KSZ066>073-081>083-090>101-211700-
SOUTHEAST KANSAS

CITY           SKY/WX    TMP DP  RH WIND       PRES   REMARKS
CHANUTE        PTSUNNY   67  59  75 W8        30.02S
COFFEYVILLE    CLOUDY    63  59  87 S3        30.03S
HUTCHINSON     PTSUNNY   70  55  59 N15       30.03R
NEWTON         MOSUNNY   68  54  60 NE6       30.05R
PARSONS        CLOUDY    66  58  75 S6        30.04S
WICHITA INTL   MOSUNNY   68  57  68 SE7       30.00F
WICHITA JABRA  MOSUNNY   66  58  75 S3        30.00F
WINFIELD       PTSUNNY   68  60  75 VRB5      30.04R
$$

KSZ007>012-019>026-033>040-048>060-102>105-211700-
NORTHEAST KANSAS

CITY           SKY/WX    TMP DP  RH WIND       PRES   REMARKS
CONCORDIA      MOSUNNY   68  50  52 N17       30.05R
EMPORIA        PTSUNNY   66  58  75 NW7       30.01R
LAWRENCE       LGT RAIN  66  58  75 W12       29.99S
MANHATTAN      PTSUNNY   72  54  53 N9G20     30.01R
OLATHE IND     CLOUDY    64  58  80 SW8       30.01S
OLATHE EXE     CLOUDY    62  58  86 SW6       30.00S
SALINA         PTSUNNY   73  53  49 N17       30.04R
TOPEKA BILLARD PTSUNNY   67  60  78 W7        30.00S
TOPEKA FORBES  PTSUNNY   62  58  86 W7        30.00S
$$



USA.gov is the U.S. government's official web portal to all federal, state and local government web resources and services.